SCP
0 0 -0 0 0 -0 -0 -0 0 0 0 0 0 0 0 0 0 0 0 0 0 0 0 0 0 0 0 0 0 0 0 0 0 0 0 0 0 0 0 0 0 0 0 0
0 0 0 -0 -0 0 0 0 0 0 0 0 0 0 0 0 0 0 0 0 0 0 0 0 0 0 0 0 0 0 0 0 0 0 0 0 0 0 0 0 0 0 0 0
0 0 0 0 0 -0 -0 0 0 0 0 0 0 0 0 0 0 0 0 0 0 0 0 0 0 0 0 0 0 0 0 0 0 0 0 0 0 0 0 0 0 0 0 0
0 0 0 0 0 -0 0 0 0 0 0 0 0 0 0 0 0 0 0 0 0 0 0 0 0 0 0 0 0 0 0 0 0 0 0 0 0 0 0 0 0 0 0 0
0 0 0 0 -0 0 0 0 0 0 0 0 0 0 0 0 0 0 0 0 0 0 0 0 0 0 0 0 0 0 0 0 0 0 0 0 0 0 0 0 0 0 0 0
0 0 0 -0 -0 0 0 0 0 0 0 0 0 0 0 0 0 0 0 0 0 0 0 0 0 0 0 0 0 0 0 0 0 0 0 0 0 0 0 0 0 0 0 0
-0 0 0 0 0 0 0 0 0 0 0 0 0 0 0 0 0 0 0 0 0 0 0 0 0 -0 0 0 0 0 0 0 0 0 0 0 0 0 0 0 0 0 0 0
0 0 0 0 0 0 0 0 0 0 0 0 0 0 0 0 0 0 0 0 0 0 0 0 0 -0 0 0 0 0 -0 -0 0 0 0 0 0 0 0 0 0 0 0 0
0 0 0 0 -0 0 0 0 0 0 0 0 0 0 0 0 0 0 0 0 0 0 0 0 0 -0 -0 0 0 -0 0 -0 -0 0 0 0 0 0 -0 0 0 0 0 0
0 0 0 0 0 0 0 0 0 0 0 0 0 0 0 0 0 0 0 0 0 0 0 0 -0 -0 -0 -0 -0 -0 0 -0 -0 -0 -0 0 0 0 0 -0 0 0 0 0
0 0 0 0 -0 0 0 0 0 0 0 0 0 0 0 0 0 0 0 0 0 0 0 0 -0 -0 -0 -0 -0 -0 0 -0 -0 -0 0 0 0 0 0 0 -0 -0 -0 0
0 0 0 0 0 0 0 0 0 0 0 0 0 0 0 0 0 0 0 0 0 0 0 0 0 -0 -0 0 0 -0 -0 -0 -0 -0 0 0 0 0 -0 -0 -0 -0 -0 -0
0 -0 0 0 0 0 0 0 0 0 0 0 0 0 0 0 0 0 0 0 0 0 0 0 0 -0 -0 0 0 0 -0 -0 -0 0 -0 0 0 -0 -0 -0 -0 -0 0 -0
0 -0 0 -0 -0 0 0 0 0 0 0 0 0 0 0 0 0 0 0 0 0 0 0 0 0 0 -0 0 0 0 0 -0 -0 0 0 0 0 -0 -0 -0 0 0 0 -0
-0 -0 -0 0 0 0 0 0 0 0 0 0 0 0 0 0 0 0 0 0 0 0 0 0 0 -0 0 0 0 0 0 0 0 0 0 -0 -0 -0 0 0 0 0 0 0
-0 -0 0 0 0 0 0 0 0 0 0 0 0 0 0 0 0 0 0 0 0 0 0 0 0 -0 -0 0 0 0 0 0 0 0 0 -0 -0 -0 0 0 0 0 0 0
0 0 -0 -0 -0 -0 0 0 0 0 0 0 0 0 0 0 0 0 0 0 0 0 0 0 0 0 0 0 0 0 0 0 0 0 0 0 0 0 0 0 0 0 0 0
0 0 -0 0 0 0 0 0 0 0 0 0 0 0 0 0 0 0 0 0 0 0 0 0 0 0 0 0 0 0 0 0 0 0 0 0 0 0 0 0 0 0 0 0
0 0 0 0 0 0 0 0 0 0 0 0 0 0 0 0 0 0 0 0 0 0 0 0 0 0 0 0 0 0 0 0 0 0 0 0 0 0 0 0 0 0 0 0
0 0 0 0 0 0 0 0 -0 -0 -0 0 0 0 0 0 0 0 0 0 0 0 0 0 0 0 0 0 0 0 0 0 0 0 0 0 0 0 0 0 0 -0 0 0
0 0 0 0 0 0 0 0 0 0 -0 -0 -0 0 0 0 0 0 0 0 0 0 0 0 0 0 0 0 0 0 0 0 0 0 0 0 0 0 0 0 0 0 0 0
0 0 0 0 0 0 0 0 0 0 0 0 -0 -0 -0 -0 0 0 0 0 0 0 0 0 0 0 0 0 0 0 0 0 0 0 0 0 0 0 0 0 0 0 0 0
0 0 0 0 0 0 0 0 0 0 0 0 0 0 -0 0 0 -0 0 0 0 0 0 0 0 0 0 0 0 0 0 0 0 0 0 0 0 0 0 0 0 0 0 0
0 0 0 0 0 0 0 0 0 0 0 0 0 0 0 0 0 0 0 -0 -0 -0 0 0 0 0 0 0 0 0 0 0 0 0 0 0 0 0 0 0 0 0 0 0
0 0 0 0 0 0 0 0 0 0 0 0 0 0 0 0 0 0 0 0 -0 -0 0 0 0 0 0 0 0 0 0 0 0 0 0 0 0 0 0 0 0 0 0 0
0 0 0 0 0 0 0 0 0 0 0 0 0 0 0 0 0 0 0 0 0 -0 -0 0 0 0 0 0 0 0 0 0 0 0 0 0 0 0 0 0 0 0 0 0
0 0 0 0 0 0 0 0 0 0 0 0 0 0 0 0 0 0 0 0 0 0 0 -0 -0 0 0 0 0 -0 0 0 0 0 0 0 0 0 0 0 0 0 0 0
Wind_Speed_500mb
15 20 28 18 16 19 11 4 7 4 2 8 9 11 16 21 18 12 7 7 10 12 14 7 12 15 17 19 22 21 21 22 27 29 32 32 25 25 28 26 23 27 21 17
14 19 28 24 19 14 13 8 8 9 5 6 5 11 20 19 13 8 8 11 11 12 13 7 12 18 18 17 15 20 21 25 28 33 31 26 24 26 26 24 29 32 34 32
4 9 4 12 10 5 6 8 5 9 7 4 1 6 18 14 6 8 12 12 12 14 9 9 13 18 17 11 13 16 20 21 26 30 34 32 25 22 22 25 31 32 33 34
3 9 6 3 4 7 10 7 9 5 3 7 3 3 7 6 5 9 12 12 12 12 6 10 14 15 13 5 9 11 13 18 24 20 28 28 27 27 25 22 26 26 28 30
6 6 5 5 11 8 1 7 11 7 6 3 4 1 11 13 8 8 9 10 11 6 5 9 12 13 7 1 6 8 9 16 21 20 20 23 19 19 20 17 16 19 21 26
5 7 7 6 18 25 16 7 14 12 10 8 5 5 10 7 8 5 8 8 6 5 7 9 11 11 3 2 4 7 9 16 22 24 24 19 15 18 15 14 15 13 13 15
5 7 5 11 31 3 12 9 12 11 12 12 11 11 20 7 8 8 9 10 10 10 13 12 12 8 4 4 4 2 6 11 16 23 27 29 18 17 16 17 11 9 7 8
5 9 7 34 19 12 6 9 11 13 12 13 18 18 16 12 12 13 13 14 14 15 14 15 16 11 7 6 3 2 2 7 16 18 23 23 22 24 19 17 17 16 13 10
5 8 2 8 10 9 6 12 14 15 16 12 13 15 18 18 18 18 19 17 16 16 14 17 18 13 13 6 4 3 3 6 10 22 24 27 29 15 17 23 24 16 16 15
7 7 7 8 10 8 12 17 15 14 14 14 17 19 24 23 21 20 21 19 18 19 17 15 14 13 13 11 7 6 9 9 9 16 27 28 31 18 17 19 25 17 11 10
4 8 12 26 33 24 9 25 26 21 16 16 17 20 26 24 21 21 19 19 20 20 20 18 15 15 15 16 11 8 7 10 13 18 23 30 29 20 15 14 17 22 16 8
4 27 11 23 30 14 28 37 33 32 26 21 25 24 23 24 22 24 22 21 24 24 25 20 20 18 19 20 16 15 12 13 17 16 22 26 29 22 15 14 12 15 18 13
9 27 33 25 36 43 39 32 34 34 38 39 36 37 35 32 24 24 29 30 31 28 26 24 24 24 21 23 21 18 17 15 18 15 24 28 27 24 17 17 15 13 16 19
30 20 32 40 35 35 31 31 28 25 26 31 42 47 50 48 40 35 30 28 28 31 29 27 28 30 24 26 26 23 20 19 21 20 26 31 35 20 17 16 18 18 18 20
34 34 30 31 33 35 33 36 38 38 40 41 42 44 45 47 46 50 30 26 30 34 36 34 34 31 27 29 29 26 22 19 19 19 24 32 28 22 18 17 18 20 18 18
31 40 41 43 44 44 43 41 43 45 46 49 48 48 53 53 48 52 39 31 35 37 35 38 40 34 29 32 34 32 27 23 23 21 22 29 22 18 19 19 18 23 17 15
35 38 39 43 47 51 52 47 42 43 47 53 56 60 49 37 45 36 38 33 33 37 33 34 35 37 35 37 36 32 30 26 23 23 24 24 19 15 20 20 20 21 17 19
20 21 26 35 42 50 56 58 51 47 45 47 52 56 52 35 22 13 21 33 30 36 37 35 36 34 38 39 41 38 34 32 27 24 20 22 15 13 21 28 26 24 21 22
21 27 29 33 37 41 48 58 53 48 51 54 53 50 46 38 32 35 40 33 31 43 37 31 27 35 40 45 43 44 41 36 35 31 24 23 25 24 20 22 22 20 17 21
28 35 35 32 34 42 44 48 52 51 48 50 53 57 55 47 43 38 41 37 39 45 48 46 41 40 38 39 44 49 50 46 40 34 31 27 27 34 32 25 30 29 30 28
30 32 34 31 37 36 37 42 46 46 47 53 58 59 55 53 47 44 43 45 42 50 55 65 48 42 48 46 42 46 51 53 48 43 40 32 23 26 25 24 27 26 26 29
29 37 38 37 41 41 37 43 44 44 43 45 49 54 55 54 54 53 45 41 44 42 44 48 42 33 42 48 45 44 43 48 48 44 40 38 37 31 31 37 37 35 32 30
36 45 42 40 48 48 48 48 44 48 45 43 44 48 49 53 55 56 61 60 51 49 47 42 50 53 54 50 52 43 45 47 47 47 48 47 49 46 43 39 36 34 32 31
30 38 42 39 45 48 50 52 47 54 47 45 43 44 48 53 58 52 54 57 64 59 51 48 50 44 58 63 54 50 52 45 44 52 52 53 45 46 45 42 44 43 38 32
40 44 38 38 42 47 48 48 50 54 49 49 47 52 50 49 53 54 53 57 55 66 56 51 40 36 48 48 56 46 36 37 39 42 46 43 55 58 58 51 47 46 47 44
34 41 46 45 45 50 54 56 59 57 54 54 56 59 57 53 51 46 50 50 53 60 63 53 39 35 28 26 46 41 43 38 36 38 42 43 46 47 49 48 47 44 44 43
40 43 50 55 56 56 56 57 59 58 52 52 54 51 51 48 45 43 46 48 53 51 57 58 50 40 33 23 30 42 38 37 39 36 38 42 47 41 45 50 51 49 52 55
Wind_Direction_500mb
48 79 78 71 55 43 60 150 96 287 292 338 320 173 171 159 163 180 226 281 310 313 333 326 337 343 347 355 360 14 26 42 26 15 14 11 36 36 32 40 34 41 50 61
52 77 74 61 40 45 33 22 56 18 345 296 45 142 159 171 180 225 279 279 307 318 324 323 339 349 357 1 25 37 44 30 21 23 21 21 33 41 45 45 54 60 63 63
202 326 328 34 1 35 59 29 350 32 307 191 52 175 169 181 226 311 304 303 317 315 310 318 330 344 354 18 37 37 38 32 23 27 27 33 40 45 52 60 71 61 60 60
107 347 26 249 2 88 100 46 18 21 326 337 282 172 185 210 267 319 314 321 319 312 296 323 325 338 349 19 23 22 23 19 25 36 23 32 48 57 60 74 53 63 57 58
106 78 297 50 357 331 51 24 352 340 329 18 119 105 274 244 260 304 320 330 324 309 316 329 336 345 335 352 1 9 26 17 24 17 15 19 22 42 49 44 36 49 58 59
357 85 50 303 322 340 153 19 352 336 282 221 196 4 289 290 250 304 305 310 304 314 316 323 329 328 297 270 8 40 36 26 19 17 23 2 11 11 12 17 27 40 49 52
47 89 25 317 341 27 58 258 334 331 314 237 217 261 313 294 280 277 289 285 284 293 300 309 313 300 251 244 346 29 31 12 9 14 19 26 2 347 346 342 354 359 14 6
41 57 0 353 14 77 259 309 316 330 319 291 286 290 288 277 275 273 283 287 282 293 289 298 300 272 235 225 319 252 329 332 1 1 9 9 8 10 354 332 315 314 301 319
132 195 222 20 52 48 6 330 330 333 348 317 297 299 285 282 285 278 276 278 268 285 286 298 292 262 225 222 264 230 252 315 352 341 350 356 355 337 345 353 347 297 284 288
73 333 348 337 325 319 324 315 318 331 349 357 333 312 307 290 286 280 279 266 260 275 279 298 289 246 227 219 265 256 285 300 303 320 333 352 355 348 337 334 351 354 326 306
355 355 337 13 344 306 310 308 304 310 334 332 326 326 315 299 289 286 272 255 258 268 276 288 267 241 225 228 258 270 281 294 308 319 319 340 345 346 335 329 332 350 359 1
2 9 352 12 4 340 301 325 316 301 308 319 318 314 305 318 298 281 278 267 258 261 273 275 255 235 230 235 259 262 267 283 307 312 323 328 317 330 315 315 318 324 339 345
95 61 44 28 27 19 15 347 328 313 308 295 299 313 295 301 303 292 277 272 266 268 273 261 251 240 231 235 258 263 265 290 306 311 312 323 321 313 310 303 303 305 315 316
45 27 8 9 5 354 346 345 348 340 330 313 302 293 295 282 285 287 295 287 279 266 270 264 255 247 236 241 252 258 268 288 300 311 321 316 312 317 309 306 304 294 300 316
34 29 21 2 354 356 355 349 348 349 344 335 320 309 304 295 277 278 292 287 277 270 266 270 258 248 242 244 246 253 265 274 291 306 326 324 315 294 302 301 321 303 284 301
25 21 19 19 13 5 355 346 341 339 341 340 333 322 307 291 287 265 265 275 276 282 282 283 262 255 247 244 249 251 257 268 285 307 302 320 319 316 320 290 300 328 289 292
17 22 18 15 17 16 13 4 351 340 338 343 341 340 332 301 283 260 250 270 291 290 284 270 274 259 253 251 246 248 253 259 278 291 290 316 322 288 295 296 304 319 314 293
4 10 15 11 8 6 4 3 359 357 350 345 350 349 353 352 336 275 279 295 276 293 288 278 274 273 253 244 249 254 254 255 268 284 284 286 313 324 284 293 304 299 308 297
337 343 345 350 353 358 1 1 2 1 0 360 356 351 350 349 330 295 285 295 266 276 288 291 280 273 261 248 256 249 255 260 262 270 272 273 282 289 315 311 292 292 297 305
359 349 341 338 336 342 352 360 5 7 5 5 6 5 359 343 334 325 300 293 260 275 291 287 274 268 267 261 253 250 252 257 259 266 268 268 273 288 273 293 276 287 276 281
348 353 350 343 345 337 336 345 353 360 2 4 7 6 4 4 354 342 334 326 313 305 294 283 266 264 266 262 256 255 252 249 256 260 260 257 253 253 262 274 277 279 289 275
339 342 336 334 338 336 333 332 333 338 342 352 359 1 359 0 357 359 350 335 323 316 311 313 270 265 255 268 264 254 251 246 249 254 254 252 252 255 261 265 265 280 288 282
324 328 327 327 325 320 320 322 323 326 328 337 343 350 351 349 351 351 346 353 337 311 309 311 305 269 250 247 261 257 251 249 250 254 259 260 258 256 260 265 276 269 264 267
331 327 325 327 326 327 332 336 321 322 319 322 329 337 338 335 333 341 340 339 346 344 319 315 310 276 274 242 253 245 259 263 260 262 262 258 256 253 257 266 262 261 264 259
332 332 335 337 333 330 327 325 323 325 320 314 319 327 326 328 323 327 333 340 341 351 340 328 318 305 276 255 228 240 255 267 269 265 268 270 252 264 251 261 260 264 263 266
339 340 338 338 335 329 326 325 323 324 320 315 312 318 317 320 326 323 327 333 341 347 349 336 336 339 317 242 229 250 273 266 265 267 268 271 270 262 258 262 257 262 266 270
338 339 336 334 333 333 332 328 323 321 321 322 321 321 321 320 318 317 321 328 335 336 346 345 336 330 336 331 261 262 263 267 264 264 269 273 274 266 278 269 263 260 264 268
Wind_Speed_850mb
15 20 28 18 16 19 11 4 7 4 2 8 9 11 16 21 18 12 7 7 10 12 14 7 12 15 17 19 22 21 21 22 27 29 32 32 25 25 28 26 23 27 21 17
14 19 28 24 19 14 13 8 8 9 5 6 5 11 20 19 13 8 8 11 11 12 13 7 12 18 18 17 15 20 21 25 28 33 31 26 24 26 26 24 29 32 34 32
4 9 4 12 10 5 6 8 5 9 7 4 1 6 18 14 6 8 12 12 12 14 9 9 13 18 17 11 13 16 20 21 26 30 34 32 25 22 22 25 31 32 33 34
3 9 6 3 4 7 10 7 9 5 3 7 3 3 7 6 5 9 12 12 12 12 6 10 14 15 13 5 9 11 13 18 24 20 28 28 27 27 25 22 26 26 28 30
6 6 5 5 11 8 1 7 11 7 6 3 4 1 11 13 8 8 9 10 11 6 5 9 12 13 7 1 6 8 9 16 21 20 20 23 19 19 20 17 16 19 21 26
5 7 7 6 18 25 16 7 14 12 10 8 5 5 10 7 8 5 8 8 6 5 7 9 11 11 3 2 4 7 9 16 22 24 24 19 15 18 15 14 15 13 13 15
5 7 5 11 31 3 12 9 12 11 12 12 11 11 20 7 8 8 9 10 10 10 13 12 12 8 4 4 4 2 6 11 16 23 27 29 18 17 16 17 11 9 7 8
5 9 7 34 19 12 6 9 11 13 12 13 18 18 16 12 12 13 13 14 14 15 14 15 16 11 7 6 3 2 2 7 16 18 23 23 22 24 19 17 17 16 13 10
5 8 2 8 10 9 6 12 14 15 16 12 13 15 18 18 18 18 19 17 16 16 14 17 18 13 13 6 4 3 3 6 10 22 24 27 29 15 17 23 24 16 16 15
7 7 7 8 10 8 12 17 15 14 14 14 17 19 24 23 21 20 21 19 18 19 17 15 14 13 13 11 7 6 9 9 9 16 27 28 31 18 17 19 25 17 11 10
4 8 12 26 33 24 9 25 26 21 16 16 17 20 26 24 21 21 19 19 20 20 20 18 15 15 15 16 11 8 7 10 13 18 23 30 29 20 15 14 17 22 16 8
4 27 11 23 30 14 28 37 33 32 26 21 25 24 23 24 22 24 22 21 24 24 25 20 20 18 19 20 16 15 12 13 17 16 22 26 29 22 15 14 12 15 18 13
9 27 33 25 36 43 39 32 34 34 38 39 36 37 35 32 24 24 29 30 31 28 26 24 24 24 21 23 21 18 17 15 18 15 24 28 27 24 17 17 15 13 16 19
30 20 32 40 35 35 31 31 28 25 26 31 42 47 50 48 40 35 30 28 28 31 29 27 28 30 24 26 26 23 20 19 21 20 26 31 35 20 17 16 18 18 18 20
34 34 30 31 33 35 33 36 38 38 40 41 42 44 45 47 46 50 30 26 30 34 36 34 34 31 27 29 29 26 22 19 19 19 24 32 28 22 18 17 18 20 18 18
31 40 41 43 44 44 43 41 43 45 46 49 48 48 53 53 48 52 39 31 35 37 35 38 40 34 29 32 34 32 27 23 23 21 22 29 22 18 19 19 18 23 17 15
35 38 39 43 47 51 52 47 42 43 47 53 56 60 49 37 45 36 38 33 33 37 33 34 35 37 35 37 36 32 30 26 23 23 24 24 19 15 20 20 20 21 17 19
20 21 26 35 42 50 56 58 51 47 45 47 52 56 52 35 22 13 21 33 30 36 37 35 36 34 38 39 41 38 34 32 27 24 20 22 15 13 21 28 26 24 21 22
21 27 29 33 37 41 48 58 53 48 51 54 53 50 46 38 32 35 40 33 31 43 37 31 27 35 40 45 43 44 41 36 35 31 24 23 25 24 20 22 22 20 17 21
28 35 35 32 34 42 44 48 52 51 48 50 53 57 55 47 43 38 41 37 39 45 48 46 41 40 38 39 44 49 50 46 40 34 31 27 27 34 32 25 30 29 30 28
30 32 34 31 37 36 37 42 46 46 47 53 58 59 55 53 47 44 43 45 42 50 55 65 48 42 48 46 42 46 51 53 48 43 40 32 23 26 25 24 27 26 26 29
29 37 38 37 41 41 37 43 44 44 43 45 49 54 55 54 54 53 45 41 44 42 44 48 42 33 42 48 45 44 43 48 48 44 40 38 37 31 31 37 37 35 32 30
36 45 42 40 48 48 48 48 44 48 45 43 44 48 49 53 55 56 61 60 51 49 47 42 50 53 54 50 52 43 45 47 47 47 48 47 49 46 43 39 36 34 32 31
30 38 42 39 45 48 50 52 47 54 47 45 43 44 48 53 58 52 54 57 64 59 51 48 50 44 58 63 54 50 52 45 44 52 52 53 45 46 45 42 44 43 38 32
40 44 38 38 42 47 48 48 50 54 49 49 47 52 50 49 53 54 53 57 55 66 56 51 40 36 48 48 56 46 36 37 39 42 46 43 55 58 58 51 47 46 47 44
34 41 46 45 45 50 54 56 59 57 54 54 56 59 57 53 51 46 50 50 53 60 63 53 39 35 28 26 46 41 43 38 36 38 42 43 46 47 49 48 47 44 44 43
40 43 50 55 56 56 56 57 59 58 52 52 54 51 51 48 45 43 46 48 53 51 57 58 50 40 33 23 30 42 38 37 39 36 38 42 47 41 45 50 51 49 52 55
Wind_Direction_850mb
48 79 78 71 55 43 60 150 96 287 292 338 320 173 171 159 163 180 226 281 310 313 333 326 337 343 347 355 360 14 26 42 26 15 14 11 36 36 32 40 34 41 50 61
52 77 74 61 40 45 33 22 56 18 345 296 45 142 159 171 180 225 279 279 307 318 324 323 339 349 357 1 25 37 44 30 21 23 21 21 33 41 45 45 54 60 63 63
202 326 328 34 1 35 59 29 350 32 307 191 52 175 169 181 226 311 304 303 317 315 310 318 330 344 354 18 37 37 38 32 23 27 27 33 40 45 52 60 71 61 60 60
107 347 26 249 2 88 100 46 18 21 326 337 282 172 185 210 267 319 314 321 319 312 296 323 325 338 349 19 23 22 23 19 25 36 23 32 48 57 60 74 53 63 57 58
106 78 297 50 357 331 51 24 352 340 329 18 119 105 274 244 260 304 320 330 324 309 316 329 336 345 335 352 1 9 26 17 24 17 15 19 22 42 49 44 36 49 58 59
357 85 50 303 322 340 153 19 352 336 282 221 196 4 289 290 250 304 305 310 304 314 316 323 329 328 297 270 8 40 36 26 19 17 23 2 11 11 12 17 27 40 49 52
47 89 25 317 341 27 58 258 334 331 314 237 217 261 313 294 280 277 289 285 284 293 300 309 313 300 251 244 346 29 31 12 9 14 19 26 2 347 346 342 354 359 14 6
41 57 0 353 14 77 259 309 316 330 319 291 286 290 288 277 275 273 283 287 282 293 289 298 300 272 235 225 319 252 329 332 1 1 9 9 8 10 354 332 315 314 301 319
132 195 222 20 52 48 6 330 330 333 348 317 297 299 285 282 285 278 276 278 268 285 286 298 292 262 225 222 264 230 252 315 352 341 350 356 355 337 345 353 347 297 284 288
73 333 348 337 325 319 324 315 318 331 349 357 333 312 307 290 286 280 279 266 260 275 279 298 289 246 227 219 265 256 285 300 303 320 333 352 355 348 337 334 351 354 326 306
355 355 337 13 344 306 310 308 304 310 334 332 326 326 315 299 289 286 272 255 258 268 276 288 267 241 225 228 258 270 281 294 308 319 319 340 345 346 335 329 332 350 359 1
2 9 352 12 4 340 301 325 316 301 308 319 318 314 305 318 298 281 278 267 258 261 273 275 255 235 230 235 259 262 267 283 307 312 323 328 317 330 315 315 318 324 339 345
95 61 44 28 27 19 15 347 328 313 308 295 299 313 295 301 303 292 277 272 266 268 273 261 251 240 231 235 258 263 265 290 306 311 312 323 321 313 310 303 303 305 315 316
45 27 8 9 5 354 346 345 348 340 330 313 302 293 295 282 285 287 295 287 279 266 270 264 255 247 236 241 252 258 268 288 300 311 321 316 312 317 309 306 304 294 300 316
34 29 21 2 354 356 355 349 348 349 344 335 320 309 304 295 277 278 292 287 277 270 266 270 258 248 242 244 246 253 265 274 291 306 326 324 315 294 302 301 321 303 284 301
25 21 19 19 13 5 355 346 341 339 341 340 333 322 307 291 287 265 265 275 276 282 282 283 262 255 247 244 249 251 257 268 285 307 302 320 319 316 320 290 300 328 289 292
17 22 18 15 17 16 13 4 351 340 338 343 341 340 332 301 283 260 250 270 291 290 284 270 274 259 253 251 246 248 253 259 278 291 290 316 322 288 295 296 304 319 314 293
4 10 15 11 8 6 4 3 359 357 350 345 350 349 353 352 336 275 279 295 276 293 288 278 274 273 253 244 249 254 254 255 268 284 284 286 313 324 284 293 304 299 308 297
337 343 345 350 353 358 1 1 2 1 0 360 356 351 350 349 330 295 285 295 266 276 288 291 280 273 261 248 256 249 255 260 262 270 272 273 282 289 315 311 292 292 297 305
359 349 341 338 336 342 352 360 5 7 5 5 6 5 359 343 334 325 300 293 260 275 291 287 274 268 267 261 253 250 252 257 259 266 268 268 273 288 273 293 276 287 276 281
348 353 350 343 345 337 336 345 353 360 2 4 7 6 4 4 354 342 334 326 313 305 294 283 266 264 266 262 256 255 252 249 256 260 260 257 253 253 262 274 277 279 289 275
339 342 336 334 338 336 333 332 333 338 342 352 359 1 359 0 357 359 350 335 323 316 311 313 270 265 255 268 264 254 251 246 249 254 254 252 252 255 261 265 265 280 288 282
324 328 327 327 325 320 320 322 323 326 328 337 343 350 351 349 351 351 346 353 337 311 309 311 305 269 250 247 261 257 251 249 250 254 259 260 258 256 260 265 276 269 264 267
331 327 325 327 326 327 332 336 321 322 319 322 329 337 338 335 333 341 340 339 346 344 319 315 310 276 274 242 253 245 259 263 260 262 262 258 256 253 257 266 262 261 264 259
332 332 335 337 333 330 327 325 323 325 320 314 319 327 326 328 323 327 333 340 341 351 340 328 318 305 276 255 228 240 255 267 269 265 268 270 252 264 251 261 260 264 263 266
339 340 338 338 335 329 326 325 323 324 320 315 312 318 317 320 326 323 327 333 341 347 349 336 336 339 317 242 229 250 273 266 265 267 268 271 270 262 258 262 257 262 266 270
338 339 336 334 333 333 332 328 323 321 321 322 321 321 321 320 318 317 321 328 335 336 346 345 336 330 336 331 261 262 263 267 264 264 269 273 274 266 278 269 263 260 264 268